SWA3899 KSTL-KMSP

Flight info

Callsign SWA3899
Flight time 1h 11m
Altitude 36000
Route EEMOS5 NEENS IOW MNOSO BLUEM5
Aircraft B738/M-SDE2E3FGHIRWXY/LB1

Departure

Time 2026-05-04 19:54
Airport St. Louis Lambert International Airport (KSTL)

Arrival

Time 2026-05-04 21:05
Airport Minneapolis–Saint Paul International Airport / Wold–Chamberlain Field (KMSP)
Time Latitude Longitude Altitude Speed Heading
2026-05-04 19:19 38.73776 -90.35503 575 ft 0 kts 212°
2026-05-04 19:43 38.73784 -90.35497 578 ft 4 kts 212°
2026-05-04 19:43 38.73807 -90.35479 579 ft 4 kts 212°
2026-05-04 19:44 38.73819 -90.35469 578 ft 0 kts 213°
2026-05-04 19:46 38.73818 -90.35482 576 ft 5 kts 269°
2026-05-04 19:46 38.73867 -90.35549 575 ft 16 kts 306°
2026-05-04 19:46 38.73927 -90.35648 574 ft 10 kts 347°
2026-05-04 19:47 38.73988 -90.35608 580 ft 10 kts 32°
2026-05-04 19:47 38.74045 -90.35562 579 ft 10 kts 32°
2026-05-04 19:47 38.74085 -90.35558 580 ft 6 kts 306°
2026-05-04 19:47 38.74113 -90.35609 578 ft 11 kts 303°
2026-05-04 19:48 38.74176 -90.35740 576 ft 25 kts 302°
2026-05-04 19:48 38.74287 -90.35962 574 ft 30 kts 303°
2026-05-04 19:48 38.74395 -90.36182 566 ft 28 kts 302°
2026-05-04 19:48 38.74492 -90.36382 561 ft 25 kts 302°
2026-05-04 19:49 38.74584 -90.36562 558 ft 23 kts 302°
2026-05-04 19:49 38.74668 -90.36734 562 ft 22 kts 302°
2026-05-04 19:49 38.74750 -90.36902 560 ft 22 kts 303°
2026-05-04 19:49 38.74831 -90.37063 558 ft 21 kts 304°
2026-05-04 19:50 38.74909 -90.37221 559 ft 21 kts 303°
2026-05-04 19:50 38.74985 -90.37372 562 ft 20 kts 300°
2026-05-04 19:50 38.75056 -90.37522 550 ft 19 kts 303°
2026-05-04 19:50 38.75126 -90.37662 548 ft 18 kts 301°
2026-05-04 19:51 38.75192 -90.37795 546 ft 17 kts 302°
2026-05-04 19:51 38.75254 -90.37921 546 ft 14 kts 303°
2026-05-04 19:51 38.75313 -90.37961 545 ft 11 kts 33°
2026-05-04 19:51 38.75367 -90.37899 544 ft 10 kts 67°
2026-05-04 19:52 38.75342 -90.37815 545 ft 10 kts 121°
2026-05-04 19:52 38.75304 -90.37738 545 ft 12 kts 123°
2026-05-04 19:52 38.75281 -90.37691 547 ft 0 kts 119°
2026-05-04 19:52 38.75280 -90.37690 546 ft 0 kts 119°
2026-05-04 19:53 38.75278 -90.37684 545 ft 0 kts 120°
2026-05-04 19:53 38.75276 -90.37681 545 ft 1 kts 122°
2026-05-04 19:53 38.75242 -90.37612 549 ft 35 kts 122°
2026-05-04 19:53 38.74940 -90.37002 563 ft 124 kts 121°
2026-05-04 19:54 38.74361 -90.35805 837 ft 175 kts 125°
2026-05-04 19:54 38.73747 -90.34483 1980 ft 180 kts 127°
2026-05-04 19:54 38.73368 -90.32772 2594 ft 228 kts 98°
2026-05-04 19:54 38.73789 -90.30625 3153 ft 258 kts 73°
2026-05-04 19:55 38.74427 -90.28398 4014 ft 272 kts 73°
2026-05-04 19:55 38.75027 -90.26105 5151 ft 276 kts 76°
2026-05-04 19:55 38.75662 -90.23700 5953 ft 302 kts 67°
2026-05-04 19:55 38.76898 -90.21423 6841 ft 320 kts 37°
2026-05-04 19:56 38.78839 -90.20233 8386 ft 304 kts
2026-05-04 19:56 38.80882 -90.20258 9750 ft 290 kts 345°
2026-05-04 19:56 38.82915 -90.20582 10709 ft 301 kts 348°
2026-05-04 19:56 38.85026 -90.21178 11049 ft 321 kts 333°
2026-05-04 19:57 38.87197 -90.22246 11471 ft 344 kts 334°
2026-05-04 19:57 38.89449 -90.23296 12506 ft 349 kts 335°
2026-05-04 19:57 38.91744 -90.24305 13692 ft 348 kts 336°
2026-05-04 19:57 38.94050 -90.25274 14617 ft 350 kts 336°
2026-05-04 19:58 38.96396 -90.26232 15362 ft 356 kts 336°
2026-05-04 19:58 38.98779 -90.27187 16139 ft 361 kts 336°
2026-05-04 19:58 39.01191 -90.28143 16922 ft 364 kts 336°
2026-05-04 19:58 39.03625 -90.29103 17688 ft 367 kts 336°
2026-05-04 19:59 39.06082 -90.30070 18347 ft 371 kts 336°
2026-05-04 19:59 39.08567 -90.31048 18919 ft 376 kts 336°
2026-05-04 19:59 39.11085 -90.32039 19490 ft 380 kts 336°
2026-05-04 19:59 39.13627 -90.33041 20091 ft 383 kts 336°
2026-05-04 20:00 39.16162 -90.34038 20660 ft 387 kts 337°
2026-05-04 20:00 39.18758 -90.35059 21189 ft 391 kts 336°
2026-05-04 20:00 39.21378 -90.36095 21681 ft 395 kts 336°
2026-05-04 20:00 39.24017 -90.37140 22194 ft 399 kts 337°
2026-05-04 20:01 39.26693 -90.38200 22682 ft 403 kts 337°
2026-05-04 20:01 39.29390 -90.39268 23167 ft 406 kts 337°
2026-05-04 20:01 39.32101 -90.40341 23581 ft 409 kts 337°
2026-05-04 20:01 39.34834 -90.41424 24004 ft 411 kts 337°
2026-05-04 20:02 39.37571 -90.42510 24456 ft 413 kts 338°
2026-05-04 20:02 39.40331 -90.43453 24844 ft 419 kts 345°
2026-05-04 20:02 39.43249 -90.43900 25222 ft 424 kts 350°
2026-05-04 20:02 39.46211 -90.44218 25605 ft 426 kts 351°
2026-05-04 20:03 39.49179 -90.44518 25964 ft 429 kts 351°
2026-05-04 20:03 39.52156 -90.44822 26315 ft 431 kts 351°
2026-05-04 20:03 39.55158 -90.45140 26666 ft 433 kts 351°
2026-05-04 20:03 39.58169 -90.45470 27021 ft 434 kts 351°
2026-05-04 20:04 39.61191 -90.45809 27351 ft 436 kts 351°
2026-05-04 20:04 39.64221 -90.46154 27662 ft 438 kts 351°
2026-05-04 20:04 39.67269 -90.46503 27971 ft 440 kts 351°
2026-05-04 20:04 39.70322 -90.46854 28263 ft 442 kts 351°
2026-05-04 20:05 39.73356 -90.47204 28548 ft 444 kts 351°
2026-05-04 20:05 39.76444 -90.47559 28824 ft 446 kts 351°
2026-05-04 20:05 39.79541 -90.47916 29109 ft 447 kts 351°
2026-05-04 20:05 39.81595 -90.48152 29367 ft 447 kts 351°
2026-05-04 20:06 39.84685 -90.48507 29800 ft 445 kts 351°
2026-05-04 20:06 39.87765 -90.48861 30161 ft 443 kts 351°
2026-05-04 20:06 39.90835 -90.49215 30451 ft 443 kts 351°
2026-05-04 20:06 39.93899 -90.49569 30708 ft 443 kts 351°
2026-05-04 20:07 39.96973 -90.49925 30992 ft 443 kts 351°
2026-05-04 20:07 40.00040 -90.50280 31297 ft 442 kts 351°
2026-05-04 20:07 40.03107 -90.50635 31602 ft 441 kts 351°
2026-05-04 20:07 40.06167 -90.50990 31855 ft 442 kts 351°
2026-05-04 20:08 40.09232 -90.51346 32120 ft 442 kts 351°
2026-05-04 20:08 40.12290 -90.51702 32413 ft 441 kts 351°
2026-05-04 20:08 40.15347 -90.52057 32709 ft 440 kts 351°
2026-05-04 20:08 40.18400 -90.52412 32982 ft 440 kts 351°
2026-05-04 20:09 40.21447 -90.52801 33242 ft 438 kts 347°
2026-05-04 20:09 40.24393 -90.53700 33503 ft 432 kts 338°
2026-05-04 20:09 40.27139 -90.55117 33685 ft 430 kts 330°
2026-05-04 20:10 40.32277 -90.59228 33680 ft 437 kts 323°
2026-05-04 20:10 40.37415 -90.63605 33686 ft 444 kts 323°
2026-05-04 20:11 40.42646 -90.68027 33691 ft 449 kts 324°
2026-05-04 20:11 40.47933 -90.72467 33703 ft 452 kts 324°
2026-05-04 20:12 40.53152 -90.76841 33667 ft 432 kts 323°
2026-05-04 20:12 40.58118 -90.81007 33673 ft 419 kts 323°
2026-05-04 20:13 40.63031 -90.85151 33678 ft 419 kts 323°
2026-05-04 20:13 40.67913 -90.89276 33660 ft 420 kts 323°
2026-05-04 20:14 40.72837 -90.93440 33655 ft 420 kts 323°
2026-05-04 20:14 40.77757 -90.97607 33648 ft 420 kts 323°
2026-05-04 20:15 40.82684 -91.01788 33651 ft 421 kts 323°
2026-05-04 20:15 40.87610 -91.05975 33654 ft 421 kts 323°
2026-05-04 20:16 40.92538 -91.10171 33661 ft 421 kts 323°
2026-05-04 20:16 40.97429 -91.14343 33649 ft 421 kts 323°
2026-05-04 20:17 41.02356 -91.18554 33633 ft 421 kts 323°
2026-05-04 20:17 41.07268 -91.22759 33635 ft 420 kts 323°
2026-05-04 20:18 41.12173 -91.26967 33637 ft 419 kts 323°
2026-05-04 20:18 41.17082 -91.31185 33634 ft 419 kts 323°
2026-05-04 20:19 41.21949 -91.35374 33625 ft 419 kts 323°
2026-05-04 20:19 41.26837 -91.39590 33625 ft 418 kts 323°
2026-05-04 20:20 41.31719 -91.43810 33627 ft 418 kts 322°
2026-05-04 20:20 41.36594 -91.48028 33631 ft 418 kts 322°
2026-05-04 20:21 41.41475 -91.52262 33631 ft 418 kts 322°
2026-05-04 20:21 41.48785 -91.58614 33623 ft 417 kts 322°
2026-05-04 20:22 41.53572 -91.62973 33624 ft 414 kts 318°
2026-05-04 20:22 41.58049 -91.67784 33632 ft 413 kts 316°
2026-05-04 20:23 41.62457 -91.72631 33625 ft 413 kts 316°
2026-05-04 20:23 41.66911 -91.77489 33624 ft 412 kts 316°
2026-05-04 20:24 41.71368 -91.82324 33600 ft 412 kts 316°
2026-05-04 20:24 41.75826 -91.87156 33601 ft 412 kts 316°
2026-05-04 20:25 41.80254 -91.91964 33608 ft 412 kts 316°
2026-05-04 20:25 41.84703 -91.96811 33590 ft 411 kts 316°
2026-05-04 20:26 41.89144 -92.01647 33591 ft 410 kts 316°
2026-05-04 20:26 41.93575 -92.06483 33595 ft 410 kts 316°
2026-05-04 20:27 41.97989 -92.11312 33606 ft 409 kts 316°
2026-05-04 20:27 42.02402 -92.16152 33595 ft 409 kts 316°
2026-05-04 20:28 42.06816 -92.21000 33596 ft 409 kts 316°
2026-05-04 20:28 42.11201 -92.25823 33592 ft 409 kts 316°
2026-05-04 20:29 42.15604 -92.30674 33590 ft 409 kts 316°
2026-05-04 20:29 42.20007 -92.35536 33604 ft 409 kts 316°
2026-05-04 20:30 42.24412 -92.40411 33599 ft 409 kts 316°
2026-05-04 20:30 42.28819 -92.45296 33602 ft 410 kts 315°
2026-05-04 20:31 42.33223 -92.50186 33603 ft 410 kts 315°
2026-05-04 20:31 42.37789 -92.54753 33600 ft 416 kts 325°
2026-05-04 20:32 42.43238 -92.57693 33628 ft 428 kts 338°
2026-05-04 20:32 42.49007 -92.59732 33613 ft 428 kts 339°
2026-05-04 20:33 42.54731 -92.61731 33611 ft 428 kts 339°
2026-05-04 20:33 42.59515 -92.63432 33611 ft 423 kts 338°
2026-05-04 20:34 42.62328 -92.64437 33295 ft 414 kts 338°
2026-05-04 20:34 42.65110 -92.65440 32555 ft 415 kts 338°
2026-05-04 20:34 42.67922 -92.66464 31660 ft 421 kts 338°
2026-05-04 20:34 42.70779 -92.67510 30745 ft 428 kts 338°
2026-05-04 20:35 42.73679 -92.68570 29891 ft 433 kts 338°
2026-05-04 20:35 42.76603 -92.69637 28946 ft 437 kts 338°
2026-05-04 20:35 42.79551 -92.70710 27988 ft 439 kts 338°
2026-05-04 20:35 42.82474 -92.71773 27270 ft 438 kts 338°
2026-05-04 20:36 42.85384 -92.72825 26902 ft 427 kts 338°
2026-05-04 20:36 42.88235 -92.73856 26495 ft 419 kts 338°
2026-05-04 20:36 42.91030 -92.74871 26039 ft 413 kts 338°
2026-05-04 20:36 42.93794 -92.75881 25442 ft 411 kts 338°
2026-05-04 20:37 42.96552 -92.76893 24839 ft 409 kts 338°
2026-05-04 20:37 42.99294 -92.77901 24329 ft 406 kts 337°
2026-05-04 20:37 43.02009 -92.78897 23852 ft 402 kts 337°
2026-05-04 20:37 43.04694 -92.79882 23357 ft 398 kts 337°
2026-05-04 20:38 43.07330 -92.80852 22772 ft 395 kts 337°
2026-05-04 20:38 43.09976 -92.81826 22149 ft 393 kts 337°
2026-05-04 20:38 43.12607 -92.82795 21576 ft 390 kts 337°
2026-05-04 20:38 43.15220 -92.83758 21019 ft 387 kts 338°
2026-05-04 20:39 43.17804 -92.84712 20466 ft 384 kts 338°
2026-05-04 20:39 43.20384 -92.85664 19952 ft 382 kts 337°
2026-05-04 20:39 43.22945 -92.86610 19416 ft 380 kts 337°
2026-05-04 20:39 43.25492 -92.87553 18894 ft 378 kts 338°
2026-05-04 20:40 43.27992 -92.88475 18739 ft 365 kts 337°
2026-05-04 20:40 43.30413 -92.89364 18549 ft 355 kts 337°
2026-05-04 20:40 43.32790 -92.90243 18118 ft 353 kts 337°
2026-05-04 20:40 43.35159 -92.91126 17609 ft 354 kts 337°
2026-05-04 20:41 43.37530 -92.92010 17144 ft 351 kts 337°
2026-05-04 20:41 43.39879 -92.92884 16767 ft 347 kts 336°
2026-05-04 20:41 43.42200 -92.93747 16385 ft 343 kts 336°
2026-05-04 20:41 43.44501 -92.94603 15941 ft 341 kts 336°
2026-05-04 20:42 43.46787 -92.95456 15517 ft 339 kts 336°
2026-05-04 20:42 43.49058 -92.96303 15120 ft 337 kts 336°
2026-05-04 20:42 43.51318 -92.97150 14527 ft 340 kts 339°
2026-05-04 20:42 43.53568 -92.97990 14232 ft 335 kts 337°
2026-05-04 20:43 43.55822 -92.98828 13946 ft 328 kts 337°
2026-05-04 20:43 43.57997 -92.99639 13540 ft 327 kts 337°
2026-05-04 20:43 43.60195 -93.00463 13141 ft 326 kts 336°
2026-05-04 20:43 43.62359 -93.01271 13068 ft 316 kts 336°
2026-05-04 20:44 43.64471 -93.02060 13052 ft 317 kts 336°
2026-05-04 20:44 43.66614 -93.02869 12765 ft 318 kts 336°
2026-05-04 20:44 43.68757 -93.03677 12453 ft 319 kts 336°
2026-05-04 20:44 43.70892 -93.04479 12282 ft 315 kts 336°
2026-05-04 20:45 43.73039 -93.05289 12049 ft 321 kts 336°
2026-05-04 20:45 43.75152 -93.06083 11786 ft 316 kts 336°
2026-05-04 20:45 43.77274 -93.06876 11543 ft 308 kts 336°
2026-05-04 20:45 43.79305 -93.07638 11307 ft 306 kts 335°
2026-05-04 20:46 43.81358 -93.08413 11055 ft 305 kts 335°
2026-05-04 20:46 43.83399 -93.09183 10799 ft 301 kts 335°
2026-05-04 20:46 43.85403 -93.09938 10552 ft 296 kts 335°
2026-05-04 20:46 43.87371 -93.10679 10306 ft 291 kts 335°
2026-05-04 20:47 43.89308 -93.11410 10058 ft 286 kts 335°
2026-05-04 20:47 43.91213 -93.12131 9825 ft 282 kts 334°
2026-05-04 20:47 43.93088 -93.12841 9580 ft 278 kts 334°
2026-05-04 20:47 43.94939 -93.13543 9315 ft 274 kts 335°
2026-05-04 20:48 43.96767 -93.14238 9059 ft 271 kts 335°
2026-05-04 20:48 43.98573 -93.14925 8803 ft 268 kts 335°
2026-05-04 20:48 44.00370 -93.15579 8567 ft 268 kts 340°
2026-05-04 20:48 44.02287 -93.15478 8287 ft 282 kts
2026-05-04 20:49 44.04201 -93.15003 8182 ft 278 kts
2026-05-04 20:49 44.06102 -93.14529 8089 ft 277 kts
2026-05-04 20:49 44.07360 -93.14218 8035 ft 277 kts
2026-05-04 20:49 44.09891 -93.13601 7947 ft 280 kts
2026-05-04 20:50 44.11817 -93.13136 7875 ft 281 kts
2026-05-04 20:50 44.13120 -93.12821 7811 ft 281 kts
2026-05-04 20:50 44.15041 -93.12358 7735 ft 279 kts
2026-05-04 20:50 44.16953 -93.11899 7661 ft 278 kts
2026-05-04 20:51 44.18857 -93.11443 7600 ft 277 kts
2026-05-04 20:51 44.20736 -93.10993 7520 ft 276 kts
2026-05-04 20:51 44.22627 -93.10540 7455 ft 276 kts
2026-05-04 20:51 44.24523 -93.10088 7382 ft 276 kts
2026-05-04 20:52 44.26415 -93.09637 7301 ft 275 kts
2026-05-04 20:52 44.28307 -93.09185 7226 ft 275 kts
2026-05-04 20:52 44.30196 -93.08734 7149 ft 275 kts
2026-05-04 20:52 44.32077 -93.08283 7063 ft 274 kts
2026-05-04 20:53 44.33960 -93.07833 6968 ft 274 kts
2026-05-04 20:53 44.35846 -93.07381 6846 ft 275 kts
2026-05-04 20:53 44.37733 -93.06929 6725 ft 275 kts
2026-05-04 20:53 44.39621 -93.06477 6613 ft 273 kts
2026-05-04 20:54 44.41477 -93.06030 6486 ft 268 kts
2026-05-04 20:54 44.43302 -93.05590 6348 ft 264 kts
2026-05-04 20:54 44.45075 -93.05168 6144 ft 258 kts
2026-05-04 20:54 44.46809 -93.04769 5958 ft 248 kts
2026-05-04 20:55 44.48472 -93.04357 5737 ft 238 kts
2026-05-04 20:55 44.50085 -93.03960 5543 ft 234 kts
2026-05-04 20:55 44.51671 -93.03577 5405 ft 231 kts
2026-05-04 20:55 44.53254 -93.03197 5207 ft 230 kts
2026-05-04 20:56 44.54821 -93.02815 5026 ft 228 kts
2026-05-04 20:56 44.56380 -93.02441 4832 ft 227 kts
2026-05-04 20:56 44.57934 -93.02072 4649 ft 226 kts
2026-05-04 20:56 44.59485 -93.01702 4443 ft 225 kts
2026-05-04 20:57 44.60966 -93.01101 4220 ft 224 kts 24°
2026-05-04 20:57 44.62203 -92.99843 4024 ft 214 kts 29°
2026-05-04 20:57 44.63495 -92.99224 3794 ft 192 kts 350°
2026-05-04 20:57 44.64822 -92.99380 3639 ft 198 kts 349°
2026-05-04 20:58 44.66249 -92.99509 3459 ft 210 kts 348°
2026-05-04 20:58 44.67709 -92.99661 3311 ft 210 kts 351°
2026-05-04 20:58 44.69161 -92.99741 3173 ft 208 kts 351°
2026-05-04 20:58 44.70585 -92.99833 3050 ft 201 kts 351°
2026-05-04 20:59 44.71973 -92.99929 2899 ft 196 kts 351°
2026-05-04 20:59 44.73318 -93.00036 2730 ft 191 kts 351°
2026-05-04 20:59 44.74660 -93.00141 2692 ft 198 kts 351°
2026-05-04 20:59 44.76031 -93.00252 2643 ft 197 kts 351°
2026-05-04 21:00 44.77315 -93.00732 2623 ft 185 kts 328°
2026-05-04 21:00 44.78426 -93.01514 2616 ft 174 kts 338°
2026-05-04 21:00 44.79619 -93.01658 2625 ft 170 kts 347°
2026-05-04 21:00 44.80572 -93.02355 2618 ft 149 kts 300°
2026-05-04 21:01 44.80777 -93.03762 2639 ft 148 kts 282°
2026-05-04 21:01 44.81154 -93.05075 2640 ft 144 kts 297°
2026-05-04 21:01 44.81583 -93.06354 2627 ft 142 kts 296°
2026-05-04 21:01 44.82006 -93.07572 2619 ft 137 kts 298°
2026-05-04 21:02 44.82475 -93.08750 2639 ft 139 kts 300°
2026-05-04 21:02 44.82961 -93.09902 2520 ft 134 kts 301°
2026-05-04 21:02 44.83429 -93.10994 2349 ft 125 kts 301°
2026-05-04 21:02 44.83868 -93.12017 2191 ft 123 kts 301°
2026-05-04 21:03 44.84314 -93.13053 2018 ft 124 kts 302°
2026-05-04 21:03 44.84753 -93.14080 1904 ft 121 kts 301°
2026-05-04 21:03 44.85189 -93.15108 1772 ft 128 kts 302°
2026-05-04 21:03 44.85667 -93.16198 1575 ft 129 kts 300°
2026-05-04 21:04 44.86128 -93.17268 1419 ft 124 kts 303°
2026-05-04 21:04 44.86564 -93.18307 1203 ft 123 kts 304°
2026-05-04 21:04 44.87001 -93.19300 1015 ft 115 kts 300°
2026-05-04 21:04 44.87403 -93.20239 845 ft 110 kts 305°
2026-05-04 21:05 44.87747 -93.21032 823 ft 69 kts 301°
2026-05-04 21:05 44.87885 -93.21353 823 ft 11 kts 289°
2026-05-04 21:05 44.87859 -93.21420 823 ft 0 kts 219°
2026-05-04 21:05 44.87856 -93.21422 823 ft 3 kts 219°
2026-05-04 21:06 44.87826 -93.21484 824 ft 11 kts 265°
2026-05-04 21:06 44.87854 -93.21578 823 ft 10 kts 301°
2026-05-04 21:06 44.87891 -93.21665 823 ft 10 kts 301°
2026-05-04 21:06 44.87927 -93.21747 824 ft 10 kts 301°
2026-05-04 21:07 44.87980 -93.21869 824 ft 18 kts 301°
2026-05-04 21:07 44.88042 -93.22014 824 ft 17 kts 302°
2026-05-04 21:07 44.88092 -93.22133 825 ft 8 kts 287°
2026-05-04 21:07 44.88080 -93.22211 825 ft 8 kts 240°
2026-05-04 21:08 44.88035 -93.22275 824 ft 10 kts 226°
2026-05-04 21:08 44.87979 -93.22356 824 ft 13 kts 226°
2026-05-04 21:08 44.87908 -93.22460 823 ft 15 kts 225°
2026-05-04 21:08 44.87837 -93.22551 823 ft 10 kts 203°
2026-05-04 21:09 44.87772 -93.22575 824 ft 10 kts 216°
2026-05-04 21:09 44.87718 -93.22650 824 ft 16 kts 226°
2026-05-04 21:09 44.87638 -93.22764 821 ft 13 kts 225°
2026-05-04 21:09 44.87592 -93.22813 822 ft 5 kts 185°
2026-05-04 21:10 44.87571 -93.22799 822 ft 2 kts 134°
2026-05-04 21:10 44.87562 -93.22784 823 ft 2 kts 131°
2026-05-04 21:10 44.87552 -93.22769 824 ft 0 kts 134°